Regional Weather Roundup
Issued by NWS Cleveland, OH

Home | Current Version | Previous Version | Text Only | Print | Product List | Glossary Off
Versions: 1 2 3 4 5 6 7 8 9 10 11 12 13 14 15 16 17 18 19 20 21 22 23 24 25 26 27 28 29 30 31 32 33 34 35 36 37 38 39 40 41 42 43 44 45 46 47 48 49 50

000
ASUS41 KCLE 241210
RWRCLE
OHIO REGIONAL WEATHER ROUNDUP
NATIONAL WEATHER SERVICE WILMINGTON, OH
800 AM EDT TUE APR 24 2018

NOTE: "FAIR" INDICATES FEW OR NO CLOUDS BELOW 12,000 FEET WITH NO
SIGNIFICANT WEATHER AND/OR OBSTRUCTIONS TO VISIBILITY.

OHZ001>008-015>018-024>027-034-035-043-044-241300-
   NORTHWEST OHIO

CITY           SKY/WX    TMP DP  RH WIND       PRES   REMARKS
DEFIANCE       CLOUDY    53  47  79 E9        30.08R
FINDLAY        CLOUDY    55  45  68 E7        30.06R
TOLEDO EXPRESS CLOUDY    53  49  86 E13       30.10R
TOLEDO EXEC    CLOUDY    50  46  86 NE10      30.11S
LIMA           CLOUDY    53  49  86 E13       30.05R
$$

OHZ009>014-019>023-028>033-038-089-241300-
   NORTHEAST OHIO

CITY           SKY/WX    TMP DP  RH WIND       PRES   REMARKS
CLE-HOPKINS    CLOUDY    57  46  66 SE15      30.15S
CLE-LAKEFRONT  CLOUDY    57  44  62 SE13      30.12S
CUY CO. ARPT   CLOUDY    57  46  67 SE16      30.14S
LORAIN-ELYRIA  LGT RAIN  54  43  66 E6        30.12S
ASHTABULA      CLOUDY    52  44  74 SE10      30.19S
AKRON-CANTON   LGT RAIN  54  44  69 SE10      30.13S
WOOSTER        LGT RAIN  52  47  83 SE10      30.13R
MANSFIELD      LGT RAIN  52  49  89 E12       30.09S FOG
YOUNGSTOWN     CLOUDY    53  42  66 E15       30.16S
$$

OHZ042-051>053-060>062-070>072-077>081-241300-
  SOUTHWEST OHIO

CITY           SKY/WX    TMP DP  RH WIND       PRES   REMARKS
CINC-COVINGTON LGT RAIN  52  51  97 E8        29.95S
CINC-LUNKEN    LGT RAIN  53  52  96 NE3       29.98R
HAMILTON       CLOUDY    53  50  89 E7        29.99R
DAYTON         CLOUDY    53  51  93 E17       30.02R
WRIGHT-PAT AFB CLOUDY    54  49  84 E12G21    30.01R
DAYTON GENERAL CLOUDY    54  49  83 E13       29.98S
WILMINGTON     LGT RAIN  51  51 100 E12G17    29.99S FOG
$$

OHZ036-037-039>041-045>050-054>059-063>069-073>076-082>088-241300-
  CENTRAL AND SOUTHEAST OHIO

CITY           SKY/WX    TMP DP  RH WIND       PRES   REMARKS
COLUMBUS       LGT RAIN  52  49  89 E15       30.05S
OSU AIRPORT    CLOUDY    53  49  86 E17G23    30.05R
BOLTON FIELD   DRIZZLE   52  50  93 E13       30.05R
RICKENBACK AFB CLOUDY    51  51 100 E10G16    30.04S
NEWARK         HVY RAIN  52  50  93 E9        30.07S FOG
MARION         CLOUDY    52  49  89 SE15      30.07S
LANCASTER      LGT RAIN  51  50  96 E12       30.06S FOG
ZANESVILLE     RAIN      51  48  89 E9        30.09  FOG
NEW PHILLY     LGT RAIN  52  46  80 E13G21    30.13R
$$




USA.gov is the U.S. government's official web portal to all federal, state and local government web resources and services.